Theta_e
326 323 323 325 323 322 322 322 331 328 327 327 327 328 333 330 331 338 338 344 344 341
324 324 323 324 324 321 324 322 324 323 323 324 324 325 328 324 328 332 334 335 339 341
321 322 322 322 321 321 321 321 320 319 319 320 320 321 325 322 325 327 327 329 331 334
319 320 320 319 319 319 319 318 317 317 316 316 316 318 320 320 320 319 322 326 326 327
318 318 318 317 317 317 316 315 315 314 313 312 311 313 313 313 313 313 314 317 318 321
316 316 316 316 316 315 313 312 311 309 308 308 308 308 309 308 307 309 310 310 312 317
315 315 314 314 313 312 311 309 310 310 309 309 308 308 308 307 308 307 308 309 313 313
314 314 313 312 311 311 311 310 310 309 309 309 307 307 307 308 307 306 305 308 308 309
312 311 311 312 310 310 309 309 309 308 308 306 307 304 303 305 306 305 305 303 306 308
310 309 309 310 310 310 310 311 309 309 308 306 307 302 300 302 304 304 303 304 305 305
309 309 309 309 309 311 309 309 308 306 304 306 307 302 299 300 304 304 304 303 305 304
308 307 307 306 307 308 307 306 304 304 305 307 307 302 298 299 303 303 303 305 307 306
305 305 305 305 307 306 308 305 305 306 309 306 308 303 299 300 306 304 304 307 305 302
303 304 306 307 306 307 306 307 307 307 309 309 308 311 301 298 308 308 305 305 305 307
Wind_Speed
5 5 6 6 8 7 9 9 9 10 11 12 13 11 11 11 11 13 12 16 15 13
6 7 7 8 8 8 9 9 11 13 13 14 15 14 13 12 13 14 14 16 17 15
8 8 8 9 10 11 11 12 13 13 14 14 15 15 14 14 14 15 13 14 18 17
8 8 8 9 10 11 12 14 15 16 16 17 17 15 14 14 15 17 17 17 19 19
8 9 9 10 12 12 13 13 14 15 15 16 17 14 15 15 15 16 19 18 19 20
9 9 10 11 12 13 14 14 15 15 15 15 15 15 17 15 15 16 17 17 20 20
9 10 11 12 12 13 14 15 15 14 15 14 18 17 17 16 16 19 18 18 19 19
10 11 11 11 11 13 13 15 16 18 17 16 14 13 15 15 17 17 17 19 19 19
11 11 12 9 12 14 14 14 14 17 17 14 14 13 14 15 16 17 17 17 19 19
11 12 12 13 13 13 12 16 16 15 18 16 20 18 15 14 14 16 17 18 18 18
12 13 14 15 16 15 14 15 13 15 16 19 16 18 14 15 15 16 18 19 21 18
14 14 15 15 14 15 13 12 14 14 18 18 17 15 10 12 14 15 17 18 20 19
15 15 15 14 15 12 14 13 13 16 16 18 19 20 17 16 12 14 13 15 16 20
14 14 14 12 13 13 13 16 14 14 13 14 17 17 17 18 16 13 12 13 13 14
Wind_Direction
335 322 311 345 333 306 307 304 313 312 304 297 294 291 289 279 276 275 272 258 253 258
338 336 328 318 309 297 312 313 314 315 302 297 293 287 286 276 273 272 268 266 263 253
328 327 326 320 316 313 310 308 307 299 297 297 293 291 285 279 273 268 264 264 262 264
326 323 320 316 316 314 312 307 305 305 306 300 294 290 290 292 291 283 285 280 276 279
318 320 318 315 313 311 307 304 301 303 302 301 302 304 305 304 295 296 293 281 279 288
318 316 316 312 313 314 314 312 310 302 294 290 289 292 289 288 288 286 283 282 288 289
314 319 315 312 319 318 310 297 299 295 295 293 289 283 278 281 280 283 278 279 279 269
314 313 307 310 303 312 301 305 302 300 297 292 286 274 278 277 278 277 278 281 275 277
308 312 306 307 319 305 297 297 293 299 293 301 286 285 270 261 277 273 274 277 276 276
310 305 308 321 305 299 298 304 305 301 307 297 293 283 253 244 269 269 267 270 274 273
314 316 317 317 311 308 316 309 309 309 295 290 288 276 259 248 266 268 266 266 267 261
320 316 316 310 309 313 312 317 298 292 291 290 294 294 266 257 274 263 263 262 262 259
313 309 308 308 309 307 308 302 301 297 285 290 288 285 268 255 272 263 261 264 262 256
309 303 304 304 310 316 307 304 301 290 297 292 281 272 260 248 259 257 255 253 256 251